Date,TemperatureHighF,TemperatureAvgF,TemperatureLowF,DewpointHighF,DewpointAvgF,DewpointLowF,HumidityHigh,HumidityAvg,HumidityLow,PressureMaxIn,PressureMinIn,WindSpeedMaxMPH,WindSpeedAvgMPH,GustSpeedMaxMPH,PrecipitationSumIn
2013-3-1,53.9,44.0,34.5,20.0,10.2,-18.0,41,26,9,30.08,29.94,6,2,10,0.00
2013-3-2,61.0,51.4,44.5,24.0,9.4,-6.0,28,19,9,29.96,29.77,12,3,17,0.00
2013-3-3,54.1,49.5,46.2,25.0,5.4,-16.0,42,18,6,29.76,29.54,35,13,43,0.00
2013-3-4,46.9,42.1,36.6,27.0,16.1,2.0,66,38,16,29.75,29.47,28,12,40,0.00
2013-3-5,54.2,44.5,38.6,26.0,21.1,18.0,50,40,28,29.81,29.71,15,6,18,0.00
2013-3-6,56.4,47.5,42.4,27.0,21.2,12.0,46,36,27,29.71,29.57,17,8,29,0.00
2013-3-7,51.1,44.5,39.9,27.0,18.8,11.0,57,37,21,29.60,29.51,19,9,35,0.00
2013-3-8,40.4,32.9,23.2,34.0,28.7,20.0,97,86,57,29.55,29.34,36,11,49,0.04
2013-3-9,26.9,24.6,22.4,25.0,23.1,20.0,96,93,86,29.84,29.55,28,10,36,0.04
2013-3-10,39.2,30.2,25.0,32.0,25.8,22.0,96,85,62,29.96,29.84,9,2,12,0.08
2013-3-11,52.6,43.3,31.0,30.0,12.6,-9.0,67,33,10,29.96,29.75,11,2,14,0.00
2013-3-12,56.1,48.6,42.9,23.0,11.4,-11.0,33,24,9,29.78,29.69,6,3,9,0.00
2013-3-13,61.1,53.6,48.0,22.0,17.5,11.0,31,24,19,29.81,29.72,8,2,9,0.00
2013-3-14,63.5,56.3,51.1,16.0,12.5,8.0,24,18,12,29.79,29.70,10,4,12,0.00
2013-3-15,65.2,57.8,52.3,22.0,11.8,-1.0,27,17,7,29.71,29.50,23,7,32,0.00
2013-3-16,58.9,52.9,46.7,24.0,15.9,7.0,38,24,14,29.50,29.38,34,12,38,0.00
2013-3-17,54.1,48.6,45.3,24.0,20.1,14.0,42,33,20,29.57,29.40,27,14,44,0.00
2013-3-18,59.3,48.6,42.9,22.0,16.2,8.0,36,28,17,29.66,29.53,21,8,25,0.00
2013-3-19,53.0,47.1,42.5,27.0,22.3,15.0,51,39,23,29.72,29.56,18,6,22,0.00
2013-3-20,60.1,50.7,44.1,27.0,21.9,13.0,42,33,22,29.72,29.51,24,5,31,0.00
2013-3-21,54.5,48.6,44.6,28.0,22.2,13.0,50,36,20,29.50,29.36,33,11,39,0.00
2013-3-22,51.7,45.4,40.9,29.0,25.5,23.0,63,46,36,29.45,29.31,23,11,30,0.00
2013-3-23,46.4,41.9,39.2,30.0,6.8,-7.0,67,25,13,29.66,29.42,26,14,36,0.00
2013-3-24,50.7,42.1,37.3,9.0,-1.2,-19.0,28,17,8,29.70,29.59,19,8,26,0.00
2013-3-25,56.6,46.3,38.5,14.0,10.6,4.0,31,24,16,29.70,29.61,11,4,13,0.00
2013-3-26,58.8,51.1,46.0,15.0,9.2,4.0,27,19,12,29.66,29.54,25,7,31,0.00
2013-3-27,57.2,49.8,45.4,20.0,14.1,9.0,34,24,18,29.64,29.51,19,9,26,0.00
2013-3-28,58.0,50.0,44.6,26.0,20.0,11.0,46,32,20,29.70,29.60,20,8,27,0.00
2013-3-29,62.2,52.2,45.0,30.0,19.3,6.0,53,29,16,29.74,29.67,11,5,17,0.00
2013-3-30,57.5,51.0,47.1,27.0,18.0,6.0,39,28,16,29.72,29.59,15,5,21,0.00
2013-3-31,60.8,50.6,44.3,26.0,21.9,16.0,41,33,24,29.69,29.58,25,7,33,0.00